Regional Weather Roundup
Issued by NWS

Home | Current Version | Previous Version | Graphics & Text | Print | Product List | Glossary On
Versions: 1 2 3 4 5 6 7 8 9 10 11 12 13 14 15 16 17 18 19 20 21 22 23 24 25 26 27 28 29 30 31 32 33 34 35 36 37 38 39 40 41 42 43 44 45 46 47 48 49 50
000
ASUS43 KDMX 261404
RWRIA

WEATHER ROUNDUP FOR IOWA
NATIONAL WEATHER SERVICE DES MOINES IA
  ISSUED BY NWS QUAD CITIES IA IL
900 AM CDT THU MAR 26 2015

NOTE: "FAIR" INDICATES FEW OR NO CLOUDS BELOW 12,000 FEET WITH NO
SIGNIFICANT WEATHER AND/OR OBSTRUCTIONS TO VISIBILITY.

* - THESE STATIONS ARE NOT NWS STATIONS...THUS NOT UNDER NWS
QUALITY CONTROL.  THEY ALSO DO NOT REPORT WEATHER SUCH
AS PRECIPITATION OR FOG.

IAZ001>003-012>014-020>022-031>034-043>046-261500-
   NORTHWEST IOWA

CITY           SKY/WX    TMP DP  RH WIND       PRES   REMARKS
CARROLL *      SUNNY     32  25  74 NW7       30.18S WCI  26
CHEROKEE *     SUNNY     32  25  75 NW8       30.19R WCI  25
DENNISON *     SUNNY     28  27  93 W6        30.18S WCI  22
LE MARS *      SUNNY     30  25  80 NW6       30.21S WCI  24
ORANGE CITY *  SUNNY     30  25  80 NW7       30.18S WCI  23
SHELDON *      SUNNY     30  27  86 NW8       30.16S WCI  23
SIOUX CITY     SUNNY     31  22  69 CALM      30.22R
SPENCER        SUNNY     32  25  75 NW9       30.17R WCI  24
STORM LAKE *   SUNNY     30  25  80 NW12      30.18R WCI  21
$$

IAZ055>058-069>071-079>083-090>094-261500-
   SOUTHWEST IOWA

CITY           SKY/WX    TMP DP  RH WIND       PRES   REMARKS
ATLANTIC *     SUNNY     32  27  80 NW12      30.21R WCI  23
AUDUBON *      SUNNY     32  25  74 NW6       30.20R WCI  26
CLARINDA *     SUNNY     32  27  80 NW6       30.24S WCI  26
COUNCIL BLFS * SUNNY     32  27  80 W6        30.23R WCI  26
CRESTON *      SUNNY     30  27  86 NW9       30.19R WCI  22
HARLAN *       SUNNY     32  32 100 NW12      30.24R WCI  23
LAMONI         SUNNY     34  26  72 NW10      30.18R WCI  26
RED OAK *      SUNNY     32  27  80 W9        30.22S WCI  24
SHENANDOAH *   SUNNY     32  28  86 W7        30.24S WCI  26
$$

IAZ047>049-059>061-072>074-084-261500-
   CENTRAL IOWA

CITY           SKY/WX    TMP DP  RH WIND       PRES   REMARKS
AMES           SUNNY     33  23  66 NW12      30.16R WCI  24
ANKENY *       SUNNY     34  23  64 NW12      30.16S WCI  25
BOONE *        SUNNY     32  25  74 NW9       30.14S WCI  24
CHARITON *     SUNNY     34  25  69 NW10      30.16S WCI  26
DES MOINES     MOSUNNY   35  23  61 NW13      30.17R WCI  26
GRINNELL *     SUNNY     33  26  77 NW14G22   30.13R WCI  23
KNOXVILLE *    SUNNY     34  25  69 NW13      30.14S WCI  25
MARSHALLTOWN   SUNNY     32  26  78 NW16      30.12R WCI  21
NEWTON *       SUNNY     34  25  69 NW13G18   30.14R WCI  25
PELLA *        SUNNY     34  29  81 NW13G18   30.15S WCI  25
PERRY *        FAIR      32  27  82 NW8       30.17S WCI  25
$$

IAZ004>006-015-016-023>025-035-036-261500-
   NORTH CENTRAL IOWA

CITY           SKY/WX    TMP DP  RH WIND       PRES   REMARKS
ALGONA *       SUNNY     32  27  80 NW15      30.15R WCI  22
CLARION *      MIX PCPN  32  27  80 NW16G22   30.14R WCI  21
ESTHERVILLE    SUNNY     30  25  81 NW14      30.15R WCI  19
FORT DODGE *   SUNNY     32  25  74 NW7       30.16R WCI  26
MASON CITY     SUNNY     32  24  72 NW20      30.12R WCI  20
FOREST CITY *  FAIR      32  27  80 NW17      30.11R WCI  21
WEBSTER CITY * SUNNY     32  32 100 NW14      30.14R WCI  22
IOWA FALLS *   FAIR      32  26  78 NW14      30.13R WCI  22
$$

IAZ007>011-017>019-026>030-037>042-050>054-066-261500-
   NORTHEAST IOWA

CITY           SKY/WX    TMP DP  RH WIND       PRES   REMARKS
CEDAR RAPIDS   SUNNY     32  26  78 NW15      30.08R WCI  22
CHARLES CITY * SUNNY     30  25  80 NW15G22   30.09S WCI  19
CLINTON *      SUNNY     32  27  80 NW14      30.08S WCI  22
DECORAH *      SUNNY     28  19  69 NW9G16    30.05S WCI  20
DUBUQUE        SUNNY     32  21  64 N17       30.03S WCI  21
MONTICELLO *   SUNNY     34  23  64 N15       30.06S WCI  24
OELWEIN *      SUNNY     32  25  74 NW20      30.08R WCI  20
WATERLOO       SUNNY     33  24  69 N15       30.10R WCI  23
$$

IAZ064-065-067-068-078-261500-
   EAST CENTRAL IOWA

CITY           SKY/WX    TMP DP  RH WIND       PRES   REMARKS
DAVENPORT      SUNNY     32  25  75 NW10      30.07S WCI  24
IOWA CITY      SUNNY     34  24  67 NW15      30.11S WCI  24
MUSCATINE *    SUNNY     34  25  69 NW12      30.10F WCI  25
QUAD CITIES    SUNNY     34  24  67 NW13      30.07S WCI  25
$$

IAZ062-063-075>077-085>089-095>099-261500-
   SOUTHEAST IOWA

CITY           SKY/WX    TMP DP  RH WIND       PRES   REMARKS
BURLINGTON     SUNNY     35  26  69 NW10      30.10R WCI  27
FAIRFIELD *    SUNNY     34  27  75 NW12G17   30.12F WCI  25
FORT MADISON * SUNNY     34  27  75 NW12      30.12S WCI  25
KEOKUK *       SUNNY     36  27  69 NW14G20   30.12S WCI  27
OSKALOOSA *    FAIR      33  26  77 NW12      30.14R WCI  24
CENTERVILLE *  FAIR      32  27  80 NW10      30.16S WCI  24
OTTUMWA        SUNNY     34  25  69 NW13      30.13S WCI  25
WASHINGTON *   SUNNY     34  32  93 NW12      30.10F WCI  25
$$

ABBREVIATIONS USED IN REMARKS
   TC - TEMPERATURES IN CELSIUS
  WCI - WIND CHILL INDEX
   HX - HEAT INDEX
  VSB - VISIBILITY
$$


USA.gov is the U.S. government's official web portal to all federal, state and local government web resources and services.